"read_dt","SO2 (ppb)","flags","PMT voltage (V)","lamp voltage (V)","lamp intensity (Hz)","internal temp (C)","react chamber temp (C)","sample flow (l/min)","pres (mmHg)","SO2 bkg (ppb)","SO2 coefficient"
2016-06-10 00:00:00,2221E-3,5C000400,-0724,0828,12355,029.1,045.5,0.253,755.9,01.16,0.508
2016-06-10 00:01:00,2287E-3,5C000400,-0724,0827,12307,029.1,045.5,0.253,755.9,01.16,0.508
2016-06-10 00:02:00,2148E-3,5C000400,-0724,0828,12212,029.1,045.5,0.253,755.9,01.16,0.508
2016-06-10 00:03:00,2281E-3,5C000400,-0724,0827,12189,029.1,045.5,0.253,755.9,01.16,0.508
2016-06-10 00:04:00,2330E-3,5C000400,-0724,0828,12286,029.1,045.5,0.253,755.9,01.16,0.508
2016-06-10 00:05:00,2194E-3,5C000400,-0724,0828,12171,029.0,045.5,0.253,755.9,01.16,0.508
2016-06-10 00:06:00,2186E-3,5C000400,-0724,0829,12188,029.1,045.5,0.253,755.8,01.16,0.508
2016-06-10 00:07:00,2083E-3,5C000400,-0724,0828,12187,029.1,045.5,0.253,755.7,01.16,0.508
2016-06-10 00:08:00,2257E-3,5C000400,-0724,0828,12223,029.1,045.5,0.253,755.8,01.16,0.508
2016-06-10 00:09:00,2084E-3,5C000400,-0724,0828,12188,029.1,045.5,0.253,755.9,01.16,0.508
2016-06-10 00:10:00,2208E-3,5C000400,-0724,0828,12154,029.1,045.5,0.253,755.8,01.16,0.508
2016-06-10 00:11:00,2184E-3,5C000400,-0724,0828,12223,029.1,045.5,0.253,756.0,01.16,0.508
2016-06-10 00:12:00,2259E-3,5C000400,-0724,0828,12192,029.1,045.5,0.253,755.9,01.16,0.508
2016-06-10 00:13:00,2355E-3,5C000400,-0724,0828,12327,029.1,045.5,0.253,755.8,01.16,0.508
2016-06-10 00:14:00,2284E-3,5C000400,-0724,0829,12183,029.1,045.5,0.253,755.8,01.16,0.508
2016-06-10 00:15:00,2170E-3,5C000400,-0724,0828,12233,029.1,045.5,0.253,755.9,01.16,0.508
2016-06-10 00:16:00,2198E-3,5C000400,-0724,0828,12134,029.1,045.5,0.253,755.8,01.16,0.508
2016-06-10 00:17:00,2241E-3,5C000400,-0724,0827,12280,029.1,045.5,0.253,755.9,01.16,0.508
2016-06-10 00:18:00,2193E-3,5C000400,-0724,0829,12178,029.1,045.5,0.253,755.9,01.16,0.508
2016-06-10 00:19:00,2206E-3,5C000400,-0724,0827,11971,029.1,045.5,0.253,756.0,01.16,0.508
2016-06-10 00:20:00,2284E-3,5C000400,-0724,0829,12290,029.1,045.5,0.253,756.0,01.16,0.508
2016-06-10 00:21:00,2229E-3,5C000400,-0724,0828,12149,029.1,045.5,0.253,756.0,01.16,0.508
2016-06-10 00:22:00,2249E-3,5C000400,-0724,0828,12219,029.1,045.5,0.253,755.8,01.16,0.508
2016-06-10 00:23:00,2171E-3,5C000400,-0724,0828,12241,029.1,045.5,0.253,755.9,01.16,0.508
2016-06-10 00:24:00,2136E-3,5C000400,-0724,0828,12235,029.1,045.5,0.253,755.8,01.16,0.508
2016-06-10 00:25:00,2307E-3,5C000400,-0724,0829,12224,029.1,045.5,0.253,755.9,01.16,0.508
2016-06-10 00:26:00,2256E-3,5C000400,-0724,0828,12274,029.1,045.5,0.253,756.0,01.16,0.508
2016-06-10 00:27:00,2175E-3,5C000400,-0724,0828,12276,029.1,045.5,0.253,755.8,01.16,0.508
2016-06-10 00:28:00,2281E-3,5C000400,-0724,0828,12220,029.1,045.5,0.253,756.0,01.16,0.508
2016-06-10 00:29:00,2371E-3,5C000400,-0724,0828,12196,029.1,045.5,0.253,755.9,01.16,0.508
2016-06-10 00:30:00,2244E-3,5C000400,-0724,0828,12105,029.1,045.5,0.253,755.9,01.16,0.508
2016-06-10 00:31:00,2167E-3,5C000400,-0724,0829,12102,029.1,045.5,0.253,755.9,01.16,0.508
2016-06-10 00:32:00,2183E-3,5C000400,-0724,0828,12329,029.1,045.5,0.253,755.9,01.16,0.508
2016-06-10 00:33:00,2203E-3,5C000400,-0724,0827,12214,029.1,045.5,0.253,756.0,01.16,0.508
2016-06-10 00:34:00,2310E-3,5C000400,-0724,0828,12138,029.1,045.5,0.253,756.0,01.16,0.508
2016-06-10 00:35:00,2283E-3,5C000400,-0724,0828,12185,029.1,045.5,0.253,755.9,01.16,0.508
2016-06-10 00:36:00,2237E-3,5C000400,-0724,0828,12318,029.1,045.5,0.253,755.9,01.16,0.508
2016-06-10 00:37:00,2287E-3,5C000400,-0724,0828,12056,029.1,045.5,0.253,756.0,01.16,0.508
2016-06-10 00:38:00,2280E-3,5C000400,-0724,0828,12020,029.1,045.5,0.253,755.9,01.16,0.508
2016-06-10 00:39:00,2051E-3,5C000400,-0724,0829,12094,029.1,045.5,0.253,755.9,01.16,0.508
2016-06-10 00:40:00,2363E-3,5C000400,-0724,0828,12188,029.1,045.5,0.253,755.9,01.16,0.508
2016-06-10 00:41:00,2359E-3,5C000400,-0724,0828,12240,029.2,045.5,0.253,756.0,01.16,0.508
2016-06-10 00:42:00,2354E-3,5C000400,-0724,0828,12261,029.2,045.5,0.253,756.0,01.16,0.508
2016-06-10 00:43:00,2110E-3,5C000400,-0724,0827,12178,029.1,045.5,0.253,756.1,01.16,0.508
2016-06-10 00:44:00,2176E-3,5C000400,-0724,0828,12133,029.2,045.5,0.253,755.9,01.16,0.508
2016-06-10 00:45:00,2195E-3,5C000400,-0724,0828,12227,029.1,045.5,0.253,755.9,01.16,0.508
2016-06-10 00:46:00,2255E-3,5C000400,-0724,0828,12233,029.2,045.5,0.253,756.0,01.16,0.508
2016-06-10 00:47:00,2017E-3,5C000400,-0724,0827,12156,029.2,045.5,0.253,755.9,01.16,0.508
2016-06-10 00:48:00,2207E-3,5C000400,-0724,0828,12309,029.2,045.5,0.254,756.0,01.16,0.508
2016-06-10 00:49:00,2192E-3,5C000400,-0724,0828,12305,029.1,045.5,0.253,755.9,01.16,0.508
2016-06-10 00:50:00,2265E-3,5C000400,-0724,0828,12234,029.1,045.5,0.253,756.0,01.16,0.508
2016-06-10 00:51:00,2102E-3,5C000400,-0724,0828,12322,029.2,045.5,0.253,756.0,01.16,0.508
2016-06-10 00:52:00,2207E-3,5C000400,-0724,0828,12262,029.2,045.5,0.253,756.0,01.16,0.508
2016-06-10 00:53:00,2308E-3,5C000400,-0724,0828,12252,029.2,045.5,0.253,756.1,01.16,0.508
2016-06-10 00:54:00,2253E-3,5C000400,-0724,0828,12272,029.2,045.5,0.253,755.8,01.16,0.508
2016-06-10 00:55:00,2254E-3,5C000400,-0724,0828,12282,029.2,045.5,0.253,755.9,01.16,0.508
2016-06-10 00:56:00,2307E-3,5C000400,-0724,0828,12341,029.2,045.5,0.253,756.0,01.16,0.508
2016-06-10 00:57:00,2252E-3,5C000400,-0724,0828,12152,029.2,045.5,0.253,756.0,01.16,0.508
2016-06-10 00:58:00,2256E-3,5C000400,-0724,0828,12209,029.2,045.5,0.253,756.1,01.16,0.508
2016-06-10 00:59:00,2167E-3,5C000400,-0724,0827,12142,029.2,045.5,0.253,756.1,01.16,0.508
2016-06-10 01:00:00,2242E-3,5C000400,-0724,0827,12207,029.2,045.5,0.253,756.0,01.16,0.508
2016-06-10 01:01:00,2141E-3,5C000400,-0724,0828,12217,029.2,045.5,0.253,756.1,01.16,0.508
2016-06-10 01:02:00,2294E-3,5C000400,-0724,0828,12232,029.2,045.5,0.253,756.1,01.16,0.508
2016-06-10 01:03:00,2269E-3,5C000400,-0724,0828,12298,029.2,045.5,0.253,756.1,01.16,0.508
2016-06-10 01:04:00,2076E-3,5C000400,-0724,0827,12159,029.2,045.5,0.253,756.0,01.16,0.508
2016-06-10 01:05:00,2201E-3,5C000400,-0724,0828,12047,029.2,045.5,0.253,756.0,01.16,0.508
2016-06-10 01:06:00,2152E-3,5C000400,-0724,0828,12172,029.2,045.5,0.253,756.0,01.16,0.508
2016-06-10 01:07:00,2238E-3,5C000400,-0724,0829,12302,029.2,045.5,0.253,756.1,01.16,0.508
2016-06-10 01:08:00,2173E-3,5C000400,-0724,0828,12258,029.2,045.5,0.252,756.1,01.16,0.508
2016-06-10 01:09:00,2294E-3,5C000400,-0724,0828,12221,029.2,045.5,0.253,756.1,01.16,0.508
2016-06-10 01:10:00,2158E-3,5C000400,-0724,0828,12109,029.2,045.5,0.253,756.1,01.16,0.508
2016-06-10 01:11:00,2140E-3,5C000400,-0724,0828,12234,029.2,045.5,0.253,756.1,01.16,0.508
2016-06-10 01:12:00,2267E-3,5C000400,-0724,0827,12198,029.2,045.5,0.253,756.1,01.16,0.508
2016-06-10 01:13:00,2118E-3,5C000400,-0724,0828,12180,029.2,045.5,0.253,756.2,01.16,0.508
2016-06-10 01:14:00,2278E-3,5C000400,-0724,0827,12166,029.2,045.5,0.252,756.1,01.16,0.508
2016-06-10 01:15:00,2209E-3,5C000400,-0724,0827,12196,029.2,045.5,0.253,756.0,01.16,0.508
2016-06-10 01:16:00,2265E-3,5C000400,-0724,0827,12208,029.2,045.5,0.253,756.2,01.16,0.508
2016-06-10 01:17:00,2267E-3,5C000400,-0724,0828,12093,029.2,045.5,0.253,756.1,01.16,0.508
2016-06-10 01:18:00,2242E-3,5C000400,-0724,0829,12390,029.2,045.5,0.253,756.2,01.16,0.508
2016-06-10 01:19:00,2236E-3,5C000400,-0724,0828,12219,029.2,045.5,0.253,756.2,01.16,0.508
2016-06-10 01:20:00,2264E-3,5C000400,-0724,0828,12175,029.2,045.5,0.253,756.2,01.16,0.508
2016-06-10 01:21:00,2301E-3,5C000400,-0724,0828,12191,029.2,045.5,0.252,756.2,01.16,0.508
2016-06-10 01:22:00,2202E-3,5C000400,-0724,0828,12197,029.2,045.5,0.253,756.2,01.16,0.508
2016-06-10 01:23:00,2242E-3,5C000400,-0724,0828,12279,029.2,045.5,0.253,756.2,01.16,0.508
2016-06-10 01:24:00,2165E-3,5C000400,-0724,0828,12160,029.2,045.5,0.253,756.2,01.16,0.508
2016-06-10 01:25:00,2099E-3,5C000400,-0724,0828,12155,029.2,045.5,0.253,756.3,01.16,0.508
2016-06-10 01:26:00,2260E-3,5C000400,-0724,0828,12267,029.2,045.5,0.253,756.2,01.16,0.508
2016-06-10 01:27:00,2151E-3,5C000400,-0724,0827,12300,029.2,045.5,0.252,756.2,01.16,0.508
2016-06-10 01:28:00,2233E-3,5C000400,-0724,0827,12278,029.3,045.5,0.253,756.3,01.16,0.508
2016-06-10 01:29:00,2271E-3,5C000400,-0724,0828,12348,029.3,045.5,0.253,756.3,01.16,0.508
2016-06-10 01:30:00,2311E-3,5C000400,-0724,0827,12281,029.3,045.5,0.253,756.2,01.16,0.508
2016-06-10 01:31:00,2263E-3,5C000400,-0724,0828,12289,029.2,045.5,0.253,756.3,01.16,0.508
2016-06-10 01:32:00,2165E-3,5C000400,-0724,0828,12212,029.3,045.5,0.253,756.2,01.16,0.508
2016-06-10 01:33:00,2279E-3,5C000400,-0724,0827,12222,029.3,045.5,0.253,756.2,01.16,0.508
2016-06-10 01:34:00,2224E-3,5C000400,-0724,0828,12167,029.3,045.5,0.252,756.3,01.16,0.508
2016-06-10 01:35:00,2235E-3,5C000400,-0724,0827,12261,029.3,045.5,0.253,756.3,01.16,0.508
2016-06-10 01:36:00,2288E-3,5C000400,-0724,0827,12172,029.2,045.5,0.253,756.3,01.16,0.508
2016-06-10 01:37:00,2318E-3,5C000400,-0724,0827,12262,029.2,045.5,0.253,756.4,01.16,0.508
2016-06-10 01:38:00,2114E-3,5C000400,-0724,0827,12056,029.3,045.5,0.253,756.3,01.16,0.508
2016-06-10 01:39:00,2166E-3,5C000400,-0724,0827,12100,029.2,045.5,0.253,756.3,01.16,0.508
2016-06-10 01:40:00,2312E-3,5C000400,-0724,0828,12320,029.2,045.5,0.252,756.3,01.16,0.508
2016-06-10 01:41:00,2242E-3,5C000400,-0724,0828,12176,029.2,045.5,0.253,756.3,01.16,0.508
2016-06-10 01:42:00,2290E-3,5C000400,-0724,0828,12126,029.2,045.5,0.253,756.4,01.16,0.508
2016-06-10 01:43:00,2134E-3,5C000400,-0724,0828,12309,029.3,045.5,0.253,756.3,01.16,0.508
2016-06-10 01:44:00,2193E-3,5C000400,-0724,0828,12245,029.3,045.5,0.253,756.3,01.16,0.508
2016-06-10 01:45:00,2226E-3,5C000400,-0724,0828,12211,029.2,045.5,0.253,756.3,01.16,0.508
2016-06-10 01:46:00,2178E-3,5C000400,-0724,0828,12241,029.3,045.5,0.253,756.3,01.16,0.508
2016-06-10 01:47:00,2084E-3,5C000400,-0724,0828,12105,029.2,045.5,0.253,756.2,01.16,0.508
2016-06-10 01:48:00,2292E-3,5C000400,-0724,0828,12263,029.3,045.5,0.253,756.3,01.16,0.508
2016-06-10 01:49:00,2219E-3,5C000400,-0724,0828,12249,029.2,045.5,0.253,756.3,01.16,0.508
2016-06-10 01:50:00,2270E-3,5C000400,-0724,0828,12313,029.3,045.5,0.253,756.2,01.16,0.508
2016-06-10 01:51:00,2221E-3,5C000400,-0724,0828,12206,029.3,045.5,0.253,756.2,01.16,0.508
2016-06-10 01:52:00,2266E-3,5C000400,-0724,0828,12288,029.3,045.5,0.253,756.4,01.16,0.508
2016-06-10 01:53:00,2344E-3,5C000400,-0724,0828,12272,029.2,045.5,0.252,756.4,01.16,0.508
2016-06-10 01:54:00,2154E-3,5C000400,-0724,0828,12219,029.2,045.5,0.253,756.2,01.16,0.508
2016-06-10 01:55:00,2110E-3,5C000400,-0724,0829,12240,029.3,045.5,0.253,756.3,01.16,0.508
2016-06-10 01:56:00,2129E-3,5C000400,-0724,0828,12271,029.2,045.5,0.253,756.4,01.16,0.508
2016-06-10 01:57:00,2260E-3,5C000400,-0724,0828,12233,029.3,045.5,0.253,756.4,01.16,0.508
2016-06-10 01:58:00,2290E-3,5C000400,-0724,0828,12291,029.2,045.5,0.253,756.4,01.16,0.508
2016-06-10 01:59:00,2227E-3,5C000400,-0724,0828,12219,029.3,045.5,0.253,756.5,01.16,0.508
2016-06-10 02:00:00,2253E-3,5C000400,-0724,0828,12098,029.3,045.5,0.253,756.5,01.16,0.508
2016-06-10 02:01:00,2178E-3,5C000400,-0724,0828,12274,029.2,045.5,0.252,756.4,01.16,0.508
2016-06-10 02:02:00,2189E-3,5C000400,-0724,0828,12222,029.3,045.5,0.253,756.4,01.16,0.508
2016-06-10 02:03:00,2291E-3,5C000400,-0724,0828,12157,029.3,045.5,0.253,756.4,01.16,0.508
2016-06-10 02:04:00,2241E-3,5C000400,-0724,0828,12255,029.2,045.5,0.253,756.5,01.16,0.508
2016-06-10 02:05:00,2279E-3,5C000400,-0724,0827,12177,029.3,045.5,0.253,756.4,01.16,0.508
2016-06-10 02:06:00,2239E-3,5C000400,-0724,0828,12031,029.3,045.5,0.253,756.4,01.16,0.508
2016-06-10 02:07:00,2210E-3,5C000400,-0724,0828,12172,029.3,045.5,0.253,756.4,01.16,0.508
2016-06-10 02:08:00,2185E-3,5C000400,-0724,0828,12351,029.3,045.5,0.252,756.5,01.16,0.508
2016-06-10 02:09:00,2187E-3,5C000400,-0724,0828,12224,029.3,045.5,0.253,756.5,01.16,0.508
2016-06-10 02:10:00,2331E-3,5C000400,-0724,0827,12277,029.3,045.5,0.253,756.5,01.16,0.508
2016-06-10 02:11:00,2281E-3,5C000400,-0724,0828,12058,029.3,045.5,0.253,756.5,01.16,0.508
2016-06-10 02:12:00,2193E-3,5C000400,-0724,0828,12231,029.2,045.5,0.253,756.4,01.16,0.508
2016-06-10 02:13:00,2134E-3,5C000400,-0724,0828,12102,029.3,045.5,0.253,756.6,01.16,0.508
2016-06-10 02:14:00,2443E-3,5C000400,-0724,0829,12132,029.2,045.5,0.252,756.5,01.16,0.508
2016-06-10 02:15:00,2185E-3,5C000400,-0724,0827,12226,029.3,045.5,0.253,756.5,01.16,0.508
2016-06-10 02:16:00,2135E-3,5C000400,-0724,0828,12066,029.2,045.5,0.253,756.5,01.16,0.508
2016-06-10 02:17:00,2381E-3,5C000400,-0724,0828,12108,029.3,045.5,0.253,756.6,01.16,0.508
2016-06-10 02:18:00,2214E-3,5C000400,-0724,0828,12188,029.3,045.5,0.253,756.6,01.16,0.508
2016-06-10 02:19:00,2306E-3,5C000400,-0724,0828,12324,029.3,045.5,0.253,756.5,01.16,0.508
2016-06-10 02:20:00,2272E-3,5C000400,-0724,0828,12088,029.3,045.5,0.253,756.6,01.16,0.508
2016-06-10 02:21:00,2209E-3,5C000400,-0724,0827,12216,029.2,045.5,0.252,756.6,01.16,0.508
2016-06-10 02:22:00,2214E-3,5C000400,-0724,0829,12026,029.3,045.5,0.253,756.6,01.16,0.508
2016-06-10 02:23:00,2221E-3,5C000400,-0724,0828,12228,029.3,045.5,0.253,756.6,01.16,0.508
2016-06-10 02:24:00,2184E-3,5C000400,-0724,0828,12250,029.3,045.5,0.253,756.6,01.16,0.508
2016-06-10 02:25:00,2110E-3,5C000400,-0724,0828,12280,029.3,045.5,0.253,756.6,01.16,0.508
2016-06-10 02:26:00,2287E-3,5C000400,-0724,0828,12156,029.3,045.5,0.253,756.6,01.16,0.508
2016-06-10 02:27:00,2237E-3,5C000400,-0724,0828,12225,029.3,045.5,0.253,756.6,01.16,0.508
2016-06-10 02:28:00,2334E-3,5C000400,-0724,0828,12158,029.2,045.5,0.253,756.6,01.16,0.508
2016-06-10 02:29:00,2206E-3,5C000400,-0724,0828,12141,029.3,045.5,0.252,756.6,01.16,0.508
2016-06-10 02:30:00,2244E-3,5C000400,-0724,0828,12225,029.3,045.5,0.253,756.7,01.16,0.508
2016-06-10 02:31:00,2181E-3,5C000400,-0724,0828,12202,029.3,045.5,0.253,756.7,01.16,0.508
2016-06-10 02:32:00,2445E-3,5C000400,-0724,0828,12183,029.3,045.5,0.253,756.5,01.16,0.508
2016-06-10 02:33:00,2176E-3,5C000400,-0724,0827,12142,029.2,045.5,0.253,756.6,01.16,0.508
2016-06-10 02:34:00,2396E-3,5C000400,-0724,0828,12169,029.3,045.5,0.253,756.6,01.16,0.508
2016-06-10 02:35:00,2186E-3,5C000400,-0724,0827,12156,029.3,045.5,0.253,756.7,01.16,0.508
2016-06-10 02:36:00,2236E-3,5C000400,-0724,0828,12194,029.3,045.5,0.252,756.6,01.16,0.508
2016-06-10 02:37:00,2240E-3,5C000400,-0724,0828,12171,029.3,045.5,0.253,756.7,01.16,0.508
2016-06-10 02:38:00,2160E-3,5C000400,-0724,0828,12353,029.3,045.5,0.253,756.6,01.16,0.508
2016-06-10 02:39:00,2106E-3,5C000400,-0724,0828,12209,029.3,045.5,0.253,756.6,01.16,0.508
2016-06-10 02:40:00,2232E-3,5C000400,-0724,0828,12351,029.3,045.5,0.253,756.6,01.16,0.508
2016-06-10 02:41:00,2166E-3,5C000400,-0724,0828,12225,029.3,045.5,0.253,756.7,01.16,0.508
2016-06-10 02:42:00,2342E-3,5C000400,-0724,0828,12248,029.3,045.5,0.253,756.7,01.16,0.508
2016-06-10 02:43:00,2238E-3,5C000400,-0724,0828,12200,029.3,045.5,0.252,756.6,01.16,0.508
2016-06-10 02:44:00,2291E-3,5C000400,-0724,0828,12163,029.3,045.5,0.252,756.6,01.16,0.508
2016-06-10 02:45:00,2281E-3,5C000400,-0724,0828,12215,029.3,045.5,0.253,756.6,01.16,0.508
2016-06-10 02:46:00,2197E-3,5C000400,-0724,0827,12281,029.3,045.5,0.253,756.6,01.16,0.508
2016-06-10 02:47:00,2188E-3,5C000400,-0724,0827,12290,029.3,045.5,0.253,756.6,01.16,0.508
2016-06-10 02:48:00,2322E-3,5C000400,-0724,0828,12225,029.3,045.5,0.253,756.5,01.16,0.508
2016-06-10 02:49:00,2188E-3,5C000400,-0724,0827,12107,029.3,045.5,0.253,756.6,01.16,0.508
2016-06-10 02:50:00,2274E-3,5C000400,-0724,0827,12325,029.3,045.5,0.253,756.6,01.16,0.508
2016-06-10 02:51:00,2144E-3,5C000400,-0724,0827,12266,029.3,045.5,0.253,756.6,01.16,0.508
2016-06-10 02:52:00,2160E-3,5C000400,-0724,0827,12036,029.3,045.5,0.253,756.6,01.16,0.508
2016-06-10 02:53:00,2181E-3,5C000400,-0724,0828,12268,029.3,045.5,0.253,756.6,01.16,0.508
2016-06-10 02:54:00,2437E-3,5C000400,-0724,0828,11968,029.3,045.5,0.253,756.6,01.16,0.508
2016-06-10 02:55:00,2195E-3,5C000400,-0724,0828,12162,029.3,045.5,0.253,756.7,01.16,0.508
2016-06-10 02:56:00,2245E-3,5C000400,-0724,0827,12213,029.3,045.5,0.253,756.7,01.16,0.508
2016-06-10 02:57:00,2265E-3,5C000400,-0724,0827,12174,029.3,045.5,0.253,756.5,01.16,0.508
2016-06-10 02:58:00,2275E-3,5C000400,-0724,0827,12233,029.3,045.5,0.253,756.6,01.16,0.508
2016-06-10 02:59:00,2215E-3,5C000400,-0724,0828,12335,029.3,045.5,0.252,756.5,01.16,0.508
2016-06-10 03:00:00,2221E-3,5C000400,-0724,0827,12212,029.3,045.5,0.253,756.5,01.16,0.508
2016-06-10 03:01:00,2166E-3,5C000400,-0724,0828,12164,029.3,045.5,0.253,756.6,01.16,0.508
2016-06-10 03:02:00,2248E-3,5C000400,-0724,0828,12208,029.3,045.5,0.253,756.7,01.16,0.508
2016-06-10 03:03:00,2319E-3,5C000400,-0724,0828,12111,029.3,045.5,0.253,756.6,01.16,0.508
2016-06-10 03:04:00,2149E-3,5C000400,-0724,0828,12209,029.3,045.5,0.253,756.6,01.16,0.508
2016-06-10 03:05:00,2294E-3,5C000400,-0724,0829,12202,029.3,045.5,0.252,756.7,01.16,0.508
2016-06-10 03:06:00,2226E-3,5C000400,-0724,0828,12035,029.3,045.5,0.252,756.5,01.16,0.508
2016-06-10 03:07:00,2340E-3,5C000400,-0724,0827,12271,029.3,045.5,0.253,756.6,01.16,0.508
2016-06-10 03:08:00,2241E-3,5C000400,-0724,0827,12282,029.3,045.5,0.253,756.5,01.16,0.508
2016-06-10 03:09:00,2214E-3,5C000400,-0724,0828,12123,029.3,045.5,0.253,756.6,01.16,0.508
2016-06-10 03:10:00,2220E-3,5C000400,-0724,0828,12157,029.3,045.5,0.253,756.6,01.16,0.508
2016-06-10 03:11:00,2128E-3,5C000400,-0724,0827,12140,029.3,045.5,0.253,756.7,01.16,0.508
2016-06-10 03:12:00,2226E-3,5C000400,-0724,0828,12184,029.3,045.5,0.252,756.7,01.16,0.508
2016-06-10 03:13:00,2353E-3,5C000400,-0724,0827,12304,029.3,045.5,0.252,756.7,01.16,0.508
2016-06-10 03:14:00,2247E-3,5C000400,-0724,0828,12212,029.3,045.5,0.253,756.6,01.16,0.508
2016-06-10 03:15:00,2314E-3,5C000400,-0724,0827,12022,029.3,045.5,0.253,756.7,01.16,0.508
2016-06-10 03:16:00,2082E-3,5C000400,-0724,0829,12318,029.3,045.5,0.253,756.8,01.16,0.508
2016-06-10 03:17:00,2323E-3,5C000400,-0724,0829,12053,029.3,045.5,0.253,756.8,01.16,0.508
2016-06-10 03:18:00,2137E-3,5C000400,-0724,0828,12315,029.3,045.5,0.253,756.6,01.16,0.508
2016-06-10 03:19:00,2167E-3,5C000400,-0724,0827,12224,029.3,045.5,0.252,756.6,01.16,0.508
2016-06-10 03:20:00,2182E-3,5C000400,-0724,0828,12141,029.3,045.5,0.252,756.4,01.16,0.508
2016-06-10 03:21:00,2171E-3,5C000400,-0724,0827,12218,029.3,045.5,0.253,756.6,01.16,0.508
2016-06-10 03:22:00,2217E-3,5C000400,-0724,0828,12131,029.3,045.5,0.253,756.5,01.16,0.508
2016-06-10 03:23:00,2245E-3,5C000400,-0724,0829,12212,029.3,045.5,0.253,756.4,01.16,0.508
2016-06-10 03:24:00,2318E-3,5C000400,-0724,0827,12240,029.3,045.5,0.253,756.7,01.16,0.508
2016-06-10 03:25:00,2371E-3,5C000400,-0724,0828,12122,029.3,045.5,0.253,756.7,01.16,0.508
2016-06-10 03:26:00,2142E-3,5C000400,-0724,0828,12221,029.3,045.5,0.252,756.7,01.16,0.508
2016-06-10 03:27:00,2229E-3,5C000400,-0724,0828,12157,029.3,045.5,0.252,756.7,01.16,0.508
2016-06-10 03:28:00,2351E-3,5C000400,-0724,0828,12262,029.3,045.5,0.253,756.6,01.16,0.508
2016-06-10 03:29:00,2229E-3,5C000400,-0724,0828,12207,029.3,045.5,0.253,756.7,01.16,0.508
2016-06-10 03:30:00,2134E-3,5C000400,-0724,0828,12189,029.3,045.5,0.253,756.6,01.16,0.508
2016-06-10 03:31:00,2223E-3,5C000400,-0724,0828,12146,029.3,045.5,0.253,756.5,01.16,0.508
2016-06-10 03:32:00,2161E-3,5C000400,-0724,0828,12178,029.3,045.5,0.252,756.5,01.16,0.508
2016-06-10 03:33:00,2446E-3,5C000400,-0724,0828,12285,029.3,045.5,0.252,756.6,01.16,0.508
2016-06-10 03:34:00,2265E-3,5C000400,-0724,0828,12291,029.3,045.5,0.253,756.6,01.16,0.508
2016-06-10 03:35:00,2379E-3,5C000400,-0724,0828,12222,029.3,045.5,0.253,756.7,01.16,0.508
2016-06-10 03:36:00,2320E-3,5C000400,-0724,0828,12218,029.3,045.5,0.253,756.7,01.16,0.508
2016-06-10 03:37:00,2282E-3,5C000400,-0724,0828,12115,029.3,045.5,0.253,756.6,01.16,0.508
2016-06-10 03:38:00,2325E-3,5C000400,-0724,0828,12239,029.3,045.5,0.253,756.7,01.16,0.508
2016-06-10 03:39:00,2292E-3,5C000400,-0724,0828,12179,029.3,045.5,0.253,756.7,01.16,0.508
2016-06-10 03:40:00,2075E-3,5C000400,-0724,0828,12196,029.3,045.5,0.252,756.6,01.16,0.508
2016-06-10 03:41:00,2190E-3,5C000400,-0724,0828,12134,029.3,045.5,0.252,756.6,01.16,0.508
2016-06-10 03:42:00,2243E-3,5C000400,-0724,0828,12157,029.3,045.5,0.253,756.5,01.16,0.508
2016-06-10 03:43:00,2270E-3,5C000400,-0724,0828,12172,029.3,045.5,0.253,756.4,01.16,0.508
2016-06-10 03:44:00,2168E-3,5C000400,-0724,0827,12141,029.3,045.5,0.253,756.6,01.16,0.508
2016-06-10 03:45:00,2186E-3,5C000400,-0724,0827,12318,029.3,045.5,0.253,756.6,01.16,0.508
2016-06-10 03:46:00,2059E-3,5C000400,-0724,0828,12265,029.3,045.5,0.253,756.7,01.16,0.508
2016-06-10 03:47:00,2382E-3,5C000400,-0724,0828,12254,029.3,045.5,0.253,756.6,01.16,0.508
2016-06-10 03:48:00,2187E-3,5C000400,-0724,0828,12148,029.3,045.5,0.253,756.4,01.16,0.508
2016-06-10 03:49:00,2224E-3,5C000400,-0724,0827,12092,029.3,045.5,0.253,756.5,01.16,0.508
2016-06-10 03:50:00,2241E-3,5C000400,-0724,0827,12151,029.3,045.5,0.253,756.6,01.16,0.508
2016-06-10 03:51:00,2229E-3,5C000400,-0724,0827,12114,029.3,045.5,0.253,756.7,01.16,0.508
2016-06-10 03:52:00,2231E-3,5C000400,-0724,0828,12258,029.3,045.5,0.253,756.7,01.16,0.508
2016-06-10 03:53:00,2203E-3,5C000400,-0724,0829,12363,029.3,045.5,0.252,756.6,01.16,0.508
2016-06-10 03:54:00,2199E-3,5C000400,-0724,0828,12171,029.4,045.5,0.252,756.7,01.16,0.508
2016-06-10 03:55:00,2282E-3,5C000400,-0724,0828,12354,029.4,045.5,0.253,756.8,01.16,0.508
2016-06-10 03:56:00,2182E-3,5C000400,-0724,0828,12233,029.3,045.5,0.253,756.6,01.16,0.508
2016-06-10 03:57:00,2290E-3,5C000400,-0724,0829,12305,029.4,045.5,0.253,756.6,01.16,0.508
2016-06-10 03:58:00,2167E-3,5C000400,-0724,0828,12316,029.3,045.5,0.253,756.8,01.16,0.508
2016-06-10 03:59:00,2107E-3,5C000400,-0724,0828,12216,029.3,045.5,0.253,756.6,01.16,0.508
2016-06-10 04:00:00,2122E-3,5C000400,-0724,0827,12246,029.3,045.5,0.252,756.7,01.16,0.508
2016-06-10 04:01:00,2212E-3,5C000400,-0724,0828,12295,029.3,045.5,0.252,756.9,01.16,0.508
2016-06-10 04:02:00,2193E-3,5C000400,-0724,0828,12163,029.3,045.5,0.253,756.7,01.16,0.508
2016-06-10 04:03:00,2266E-3,5C000400,-0724,0828,12274,029.3,045.5,0.253,756.9,01.16,0.508
2016-06-10 04:04:00,2200E-3,5C000400,-0724,0827,12258,029.4,045.5,0.253,756.7,01.16,0.508
2016-06-10 04:05:00,2200E-3,5C000400,-0724,0828,12116,029.4,045.5,0.253,756.8,01.16,0.508
2016-06-10 04:06:00,2277E-3,5C000400,-0724,0827,12198,029.3,045.5,0.253,756.8,01.16,0.508
2016-06-10 04:07:00,2193E-3,5C000400,-0724,0827,12282,029.4,045.5,0.252,756.9,01.16,0.508
2016-06-10 04:08:00,2289E-3,5C000400,-0724,0828,12187,029.3,045.5,0.252,756.9,01.16,0.508
2016-06-10 04:09:00,2168E-3,5C000400,-0724,0828,12216,029.4,045.5,0.253,756.9,01.16,0.508
2016-06-10 04:10:00,2318E-3,5C000400,-0724,0828,12218,029.4,045.5,0.253,756.9,01.16,0.508
2016-06-10 04:11:00,2282E-3,5C000400,-0724,0828,12309,029.4,045.5,0.253,756.9,01.16,0.508
2016-06-10 04:12:00,2247E-3,5C000400,-0724,0828,12170,029.3,045.5,0.253,757.0,01.16,0.508
2016-06-10 04:13:00,2239E-3,5C000400,-0724,0828,12264,029.4,045.5,0.253,757.0,01.16,0.508
2016-06-10 04:14:00,2267E-3,5C000400,-0724,0828,12148,029.3,045.5,0.253,756.9,01.16,0.508
2016-06-10 04:15:00,2287E-3,5C000400,-0724,0828,12098,029.3,045.5,0.252,756.9,01.16,0.508
2016-06-10 04:16:00,2307E-3,5C000400,-0724,0829,12244,029.3,045.5,0.252,756.9,01.16,0.508
2016-06-10 04:17:00,2344E-3,5C000400,-0724,0828,12214,029.4,045.5,0.253,756.9,01.16,0.508
2016-06-10 04:18:00,2322E-3,5C000400,-0724,0828,12198,029.3,045.5,0.253,756.8,01.16,0.508
2016-06-10 04:19:00,2262E-3,5C000400,-0724,0828,12218,029.4,045.5,0.253,757.0,01.16,0.508
2016-06-10 04:20:00,2181E-3,5C000400,-0724,0829,12277,029.4,045.5,0.253,757.0,01.16,0.508